Starlink 32641

operational
NORAD ID: 62236 Int'l Des: 2024-231 Owner: SPXS Country: US Constellation: starlink
LEOCIRCULAR

关于 Starlink 32641

正在加载描述...

实时位置

正在加载3D地球...

即将过境

高度历史

Altitude vs Time

uPlot chart will show altitude changes over time

两行轨道根数

1 62236U 24231U 26036.26501626 .00039828 00000-0 13482-2 0 9996
2 62236 53.1618 357.4843 0001413 205.2749 154.8183 15.30234226 66973
Epoch: Feb 5, 2026 • Age: 18 hours

当前状态

高度 474.5 km
速度 7.63 km/s
星下点 5.64°N, 28.29°E
发射日期 Dec 5, 2024
运行时间 1.1 years
类型 internet

技术详情

分类 Payload
质量 730.00 kg
干质量 700.00 kg
总质量 730.00 kg
长度 0.30 m
直径 4.10 m
跨度 29.00 m
形状 Box + pan
制造商 SPXS
平台类型 Starlink V2M
阶段状态 In Orbit
所有者/国家 SPXS/US

大型星座

Loading constellations...